• In Lithuania
  • List of Countries
  • For 7 days
  • Water Temperature
  • Satellite Maps
  • Weather Map
  • Weather Widgets
  • user-avatar
    Login

    Hourly Weather Veselka

    Today, 12 December, Tuesday

    Time Temperature Precipitation Wind Pressure Humidity
    00:00 +3°C° 0 mm 4 mps 751 mmHg 87%
    01:00 +3°C° 0 mm 4 mps 751 mmHg 88%
    02:00 +3°C° 0 mm 3 mps 751 mmHg 92%
    03:00 +3°C° 0 mm 3 mps 751 mmHg 93%
    04:00 +3°C° 0 mm 3 mps 751 mmHg 94%
    05:00 +3°C° 0 mm 4 mps 751 mmHg 94%
    06:00 +3°C° 0 mm 4 mps 751 mmHg 95%
    07:00 +4°C° 0 mm 4 mps 751 mmHg 95%
    08:00 +4°C° 0 mm 4 mps 750 mmHg 96%
    09:00 +5°C° 0 mm 4 mps 750 mmHg 94%
    10:00 +6°C° 0 mm 5 mps 750 mmHg 93%
    11:00 +6°C° 0 mm 5 mps 750 mmHg 91%
    12:00 +6°C° 0 mm 5 mps 750 mmHg 87%
    13:00 +7°C° 0 mm 4 mps 750 mmHg 84%
    14:00 +9°C° 0 mm 3 mps 750 mmHg 75%
    15:00 +8°C° 0 mm 3 mps 750 mmHg 77%
    16:00 +7°C° 0 mm 3 mps 751 mmHg 78%
    17:00 +5°C° 0 mm 3 mps 751 mmHg 79%
    18:00 +5°C° 0 mm 3 mps 751 mmHg 81%
    19:00 +4°C° 0 mm 3 mps 751 mmHg 82%
    20:00 +4°C° 0 mm 3 mps 751 mmHg 83%
    21:00 +4°C° 0 mm 3 mps 751 mmHg 84%
    22:00 +4°C° 0 mm 3 mps 751 mmHg 86%
    23:00 +3°C° 0 mm 3 mps 752 mmHg 88%

    Tomorrow, 13 December, Wednesday

    Time Temperature Precipitation Wind Pressure Humidity
    00:00 +3°C° 0 mm 3 mps 752 mmHg 88%
    01:00 +4°C° 0 mm 2 mps 752 mmHg 89%
    02:00 +4°C° 0 mm 2 mps 752 mmHg 89%
    03:00 +4°C° 0 mm 2 mps 752 mmHg 90%
    04:00 +4°C° 0 mm 2 mps 752 mmHg 90%
    05:00 +4°C° 0 mm 2 mps 752 mmHg 90%
    06:00 +4°C° 0 mm 2 mps 752 mmHg 91%
    07:00 +4°C° 0 mm 2 mps 752 mmHg 91%
    08:00 +4°C° 0 mm 2 mps 752 mmHg 92%
    09:00 +4°C° 0 mm 3 mps 752 mmHg 89%
    10:00 +5°C° 0 mm 3 mps 752 mmHg 87%
    11:00 +7°C° 0 mm 3 mps 752 mmHg 85%
    12:00 +7°C° 0 mm 3 mps 752 mmHg 86%
    13:00 +7°C° 0 mm 3 mps 752 mmHg 86%
    14:00 +8°C° 0 mm 3 mps 751 mmHg 87%
    15:00 +7°C° 0 mm 2 mps 751 mmHg 89%
    16:00 +7°C° 0 mm 2 mps 751 mmHg 91%
    17:00 +7°C° 0 mm 2 mps 751 mmHg 94%
    18:00 +7°C° 0 mm 2 mps 751 mmHg 94%
    19:00 +7°C° 0 mm 2 mps 751 mmHg 95%
    20:00 +7°C° 0 mm 2 mps 751 mmHg 95%
    21:00 +7°C° 0 mm 2 mps 750 mmHg 96%
    22:00 +7°C° 0 mm 2 mps 750 mmHg 96%
    23:00 +6°C° 0 mm 2 mps 750 mmHg 96%

    Day after tomorrow, 14 December, Thursday

    Time Temperature Precipitation Wind Pressure Humidity
    00:00 +6°C° 0 mm 2 mps 749 mmHg 96%
    01:00 +5°C° 0 mm 3 mps 749 mmHg 96%
    02:00 +5°C° 0 mm 3 mps 749 mmHg 96%
    03:00 +4°C° 0 mm 3 mps 748 mmHg 96%
    04:00 +4°C° 0 mm 3 mps 748 mmHg 96%
    05:00 +4°C° 0 mm 3 mps 748 mmHg 96%
    06:00 +4°C° 0.1 mm 3 mps 748 mmHg 96%
    07:00 +4°C° 0.1 mm 3 mps 748 mmHg 96%
    08:00 +4°C° 0.1 mm 3 mps 748 mmHg 95%
    09:00 +5°C° 0.2 mm 3 mps 748 mmHg 93%
    10:00 +5°C° 0.2 mm 4 mps 748 mmHg 91%
    11:00 +6°C° 0.2 mm 4 mps 747 mmHg 89%
    12:00 +6°C° 0.5 mm 4 mps 747 mmHg 90%
    13:00 +6°C° 0.5 mm 4 mps 747 mmHg 90%
    14:00 +6°C° 0.5 mm 4 mps 747 mmHg 91%
    15:00 +6°C° 0.6 mm 4 mps 747 mmHg 92%
    16:00 +6°C° 0.6 mm 4 mps 747 mmHg 94%
    17:00 +6°C° 0.6 mm 4 mps 747 mmHg 95%
    18:00 +7°C° 0.2 mm 3 mps 747 mmHg 95%
    19:00 +7°C° 0.2 mm 3 mps 747 mmHg 95%
    20:00 +7°C° 0.2 mm 3 mps 747 mmHg 96%
    21:00 +5°C° 0 mm 3 mps 747 mmHg 96%
    22:00 +5°C° 0 mm 3 mps 748 mmHg 96%
    23:00 +4°C° 0 mm 3 mps 748 mmHg 96%

    15 December, Friday

    Time Temperature Precipitation Wind Pressure Humidity
    00:00 +5°C° 0 mm 2 mps 748 mmHg 95%
    01:00 +4°C° 0 mm 2 mps 748 mmHg 95%
    02:00 +4°C° 0 mm 2 mps 748 mmHg 94%
    03:00 +4°C° 0 mm 2 mps 748 mmHg 93%
    04:00 +4°C° 0 mm 2 mps 749 mmHg 93%
    05:00 +4°C° 0 mm 2 mps 749 mmHg 92%
    06:00 +4°C° 0 mm 2 mps 749 mmHg 92%
    07:00 +4°C° 0 mm 2 mps 749 mmHg 93%
    08:00 +4°C° 0 mm 1 mps 750 mmHg 93%
    09:00 +4°C° 0 mm 2 mps 750 mmHg 89%
    10:00 +5°C° 0 mm 2 mps 750 mmHg 86%
    11:00 +5°C° 0 mm 2 mps 750 mmHg 83%
    12:00 +6°C° 0 mm 2 mps 750 mmHg 80%
    13:00 +6°C° 0 mm 2 mps 750 mmHg 78%
    14:00 +7°C° 0 mm 2 mps 750 mmHg 76%
    15:00 +5°C° 0 mm 3 mps 750 mmHg 79%
    16:00 +5°C° 0 mm 3 mps 750 mmHg 83%
    17:00 +4°C° 0 mm 4 mps 750 mmHg 86%
    18:00 +3°C° 0 mm 5 mps 749 mmHg 86%
    19:00 +4°C° 0 mm 6 mps 749 mmHg 87%
    20:00 +4°C° 0 mm 6 mps 749 mmHg 87%
    21:00 +4°C° 0 mm 6 mps 749 mmHg 86%
    22:00 +4°C° 0 mm 6 mps 749 mmHg 84%
    23:00 +4°C° 0 mm 6 mps 749 mmHg 83%

    16 December, Saturday

    Time Temperature Precipitation Wind Pressure Humidity
    00:00 +4°C° 0 mm 6 mps 749 mmHg 82%
    01:00 +5°C° 0 mm 7 mps 748 mmHg 81%
    02:00 +5°C° 0 mm 7 mps 748 mmHg 80%
    03:00 +5°C° 0 mm 7 mps 748 mmHg 80%
    04:00 +5°C° 0 mm 7 mps 747 mmHg 81%
    05:00 +5°C° 0 mm 8 mps 747 mmHg 82%
    06:00 +6°C° 0.2 mm 8 mps 746 mmHg 82%
    07:00 +6°C° 0.2 mm 9 mps 746 mmHg 82%
    08:00 +7°C° 0.2 mm 9 mps 746 mmHg 83%
    09:00 +7°C° 0 mm 10 mps 745 mmHg 77%
    10:00 +8°C° 0 mm 10 mps 745 mmHg 72%
    11:00 +9°C° 0 mm 10 mps 745 mmHg 67%
    12:00 +10°C° 0 mm 9 mps 745 mmHg 67%
    13:00 +10°C° 0 mm 9 mps 745 mmHg 67%
    14:00 +11°C° 0 mm 8 mps 744 mmHg 67%
    15:00 +10°C° 0 mm 7 mps 745 mmHg 71%
    16:00 +10°C° 0 mm 7 mps 745 mmHg 76%
    17:00 +10°C° 0 mm 6 mps 746 mmHg 80%
    18:00 +9°C° 0.1 mm 5 mps 746 mmHg 83%
    19:00 +8°C° 0.1 mm 5 mps 747 mmHg 85%
    20:00 +8°C° 0.1 mm 5 mps 748 mmHg 87%
    21:00 +7°C° 0.1 mm 4 mps 748 mmHg 85%
    22:00 +6°C° 0.1 mm 4 mps 749 mmHg 84%
    23:00 +5°C° 0.1 mm 4 mps 750 mmHg 82%

    17 December, Sunday

    Time Temperature Precipitation Wind Pressure Humidity
    00:00 +4°C° 0 mm 3 mps 750 mmHg 82%
    01:00 +4°C° 0 mm 3 mps 751 mmHg 81%
    02:00 +4°C° 0 mm 2 mps 751 mmHg 80%
    03:00 +4°C° 0 mm 2 mps 752 mmHg 80%
    04:00 +4°C° 0 mm 2 mps 752 mmHg 80%
    05:00 +4°C° 0 mm 2 mps 752 mmHg 80%
    06:00 +3°C° 0 mm 2 mps 753 mmHg 79%
    07:00 +3°C° 0 mm 2 mps 753 mmHg 79%
    08:00 +3°C° 0 mm 2 mps 753 mmHg 78%
    09:00 +3°C° 0.1 mm 3 mps 753 mmHg 76%
    10:00 +3°C° 0.1 mm 3 mps 753 mmHg 75%
    11:00 +3°C° 0.1 mm 3 mps 753 mmHg 73%
    12:00 +3°C° 0.3 mm 4 mps 752 mmHg 73%
    13:00 +3°C° 0.3 mm 4 mps 752 mmHg 74%
    14:00 +3°C° 0.3 mm 4 mps 751 mmHg 74%
    15:00 +2°C° 0.7 mm 5 mps 751 mmHg 76%
    16:00 +2°C° 0.7 mm 5 mps 751 mmHg 78%
    17:00 +2°C° 0.7 mm 5 mps 751 mmHg 80%
    18:00 +1°C° 0.9 mm 6 mps 751 mmHg 81%
    19:00 +1°C° 0.9 mm 6 mps 751 mmHg 82%
    20:00 +1°C° 0.9 mm 6 mps 751 mmHg 82%
    21:00 +1°C° 0.6 mm 6 mps 751 mmHg 84%
    22:00 -1°C° 0.6 mm 6 mps 752 mmHg 86%
    23:00 0°C° 0.6 mm 5 mps 752 mmHg 88%
    Show more